Powrót do katalogu

FENGYUN 1C DEB

AktywnySSO
NORAD 29786·DEBRIS·🇨🇳 China

Wystrzelony May 10, 1999 z Taiyuan Satellite Launch Center

Loading…

Następne Przeloty (najbliższe 24 godziny)

TLE

ŚwieżeSource: Space-Track

Epoka: Sep 14, 2026, 19:04 UTC

1 29786U 99025CC  26257.79485874  .00000215  00000-0  14461-3 0  9998
2 29786  98.7243 271.4785 0076677 241.3927 294.7352 14.09235045 10479

Śledź FENGYUN 1C DEB w czasie rzeczywistym z AllMySat

Download on the App Store